SCP
1 1 1 1 1 1 1 0 0 0 0 0 1 1 1 1 1 1 1 1 1 0 0 1 1 1 1 2 2 2 2 2 2 2 2 2 3 3 3 2 2 2 2 2 1 1 1 2 3
1 1 2 2 2 1 1 1 0 1 1 1 1 1 1 1 1 1 1 1 1 0 0 1 1 2 2 2 2 2 2 2 2 2 2 2 2 3 3 2 2 2 2 2 2 2 2 2 2
1 1 2 2 2 1 1 1 1 1 1 1 1 1 1 1 1 1 1 1 0 0 0 1 1 2 2 2 2 2 2 2 2 2 2 2 2 2 2 2 2 2 2 2 2 2 2 2 2
1 1 2 2 1 1 1 1 1 1 1 1 1 1 1 1 1 1 1 1 1 1 1 1 1 2 2 2 2 2 2 2 2 2 2 1 1 2 2 2 2 2 2 2 2 2 2 2 2
1 1 1 1 1 1 1 1 1 1 1 1 1 1 1 2 2 2 2 2 1 1 1 1 1 2 2 2 2 2 2 2 2 2 1 1 1 2 2 1 1 1 1 1 1 1 1 1 1
2 1 1 1 1 1 1 1 1 1 1 1 1 1 1 2 2 2 2 2 2 1 1 1 1 2 2 2 2 2 2 2 2 2 1 1 1 2 2 2 1 1 1 1 1 1 1 1 1
1 1 1 1 1 1 1 1 1 1 1 1 1 1 1 1 2 2 2 2 1 1 1 1 1 1 1 2 1 1 1 2 2 2 2 1 1 2 2 2 2 1 1 1 1 1 1 1 1
1 1 0 0 0 1 1 1 1 1 1 1 1 1 1 1 1 2 2 1 1 1 1 1 1 1 1 1 1 1 1 2 2 2 2 1 1 1 2 2 1 1 1 1 1 1 1 1 1
1 0 0 0 0 0 1 1 1 1 1 1 1 1 1 1 1 1 2 1 1 1 1 1 1 1 1 1 1 1 1 1 2 2 1 1 1 1 1 1 1 1 1 2 2 2 1 1 1
0 0 0 0 0 0 0 0 1 1 1 1 1 1 1 1 1 1 1 1 1 1 1 1 1 0 0 0 1 1 1 1 1 1 1 1 1 1 1 1 1 2 2 2 2 2 2 2 1
0 0 0 0 0 0 0 0 0 1 1 1 1 1 2 1 1 1 1 1 1 1 1 1 0 0 0 0 0 1 1 1 1 1 1 1 1 1 1 1 2 2 2 2 2 3 2 2 2
0 0 0 0 0 0 0 0 0 1 1 1 1 2 2 2 2 2 1 1 1 1 1 1 0 0 0 1 1 1 1 1 1 1 1 1 1 1 1 1 2 2 2 2 3 3 3 3 2
0 0 0 0 0 0 0 0 1 1 1 1 1 1 2 2 2 2 1 1 1 1 1 1 1 1 1 1 1 1 1 1 1 1 1 1 1 1 1 1 2 2 2 2 2 3 4 4 3
0 0 0 0 0 0 0 0 1 1 1 1 1 1 1 2 2 2 2 2 1 1 1 1 1 1 1 1 1 1 1 1 1 1 1 1 1 1 1 1 2 2 2 2 2 3 3 4 4
0 0 0 0 0 0 0 1 1 1 1 1 2 1 1 1 2 2 2 2 2 1 1 1 1 1 1 1 1 1 1 1 1 1 1 1 1 1 1 1 2 2 2 2 2 2 3 3 3
0 0 0 0 0 0 1 1 1 1 1 2 2 2 2 2 2 2 2 2 2 2 2 2 2 2 2 2 2 1 1 1 1 1 1 1 1 1 1 1 1 2 1 2 2 1 2 3 3
0 0 0 0 0 1 1 2 2 2 2 2 2 1 2 3 3 2 2 2 2 2 2 2 2 2 2 2 2 2 2 2 2 1 1 1 1 1 1 1 2 2 2 1 1 2 2 2 3
0 0 0 0 1 1 1 2 2 2 1 1 1 1 2 3 3 2 2 2 2 2 2 2 2 2 2 2 3 3 3 2 2 2 1 1 1 1 1 2 2 2 2 2 2 2 2 3 3
0 0 0 0 1 1 1 1 1 1 1 1 1 1 2 2 2 2 2 2 2 2 3 3 3 3 3 2 3 3 2 2 2 2 2 2 2 2 2 2 2 3 3 3 3 3 3 3 4
0 0 0 0 0 0 0 0 1 1 1 1 1 1 1 2 2 2 2 2 2 2 3 3 3 3 3 3 2 3 3 3 3 3 3 2 2 2 2 3 3 3 3 4 4 4 4 4 4
0 0 0 0 0 0 0 0 1 1 1 2 2 2 2 2 2 2 2 2 2 2 3 3 3 4 4 3 3 3 3 3 3 3 3 3 3 2 2 2 3 3 3 4 5 5 5 5 5
0 0 0 0 0 0 0 0 1 1 2 3 3 3 3 2 2 2 2 2 2 2 3 3 4 4 5 4 4 3 4 4 3 3 3 3 2 2 2 2 2 3 4 4 5 6 6 6 6
0 0 0 0 0 0 0 0 1 2 3 4 4 4 4 3 2 2 2 2 2 2 3 3 4 5 6 5 4 4 4 4 3 3 3 2 2 2 1 2 2 4 5 5 6 7 7 7 7
0 0 0 0 0 0 0 0 1 2 4 5 5 4 3 3 2 2 2 3 3 3 4 4 5 6 6 5 5 5 5 5 4 3 2 2 2 1 1 2 3 4 5 6 7 8 7 7 7
0 0 0 0 0 0 0 1 3 5 6 6 5 3 2 2 1 1 2 3 4 5 5 5 6 6 6 5 5 5 5 4 3 3 2 2 2 2 2 3 4 4 5 5 6 6 5 5 5
0 0 0 0 0 0 0 2 5 6 6 5 3 2 2 2 1 1 2 3 4 5 6 7 8 7 7 7 6 6 5 4 3 3 3 2 2 2 3 4 4 3 4 4 4 4 4 4 4
0 0 0 0 0 0 0 3 5 6 4 3 2 2 1 2 2 1 2 2 3 4 5 7 8 9 9 8 8 7 6 5 5 4 4 4 4 4 4 3 3 3 3 3 3 3 3 4 4
0 0 0 0 0 0 0 2 4 4 3 2 1 1 1 1 2 2 2 2 2 3 5 6 7 9 10 9 8 8 7 7 7 6 6 5 5 5 4 3 3 3 3 3 4 4 4 4 5
0 0 0 0 0 0 0 1 3 4 2 1 1 1 1 1 2 2 2 2 2 3 4 6 7 9 10 10 9 8 8 7 7 7 6 6 6 6 5 4 3 3 3 4 4 4 4 4 4
0 0 0 0 0 0 0 1 3 3 2 1 1 1 2 2 2 2 2 2 2 2 4 6 8 10 11 11 9 8 7 7 6 6 7 7 7 6 5 4 4 4 4 5 5 4 3 3 2
Wind_Speed
12 9 6 5 4 4 10 9 8 8 7 7 7 6 7 8 7 8 6 5 5 5 7 8 8 8 8 8 8 9 9 10 12 12 13 15 15 15 16 16 16 16 16 16 16 15 15 14 14
8 6 6 5 1 7 10 8 9 9 7 6 6 6 8 9 8 7 6 5 5 6 7 8 9 8 8 9 9 9 10 11 12 13 14 15 15 15 16 16 16 16 16 16 15 15 15 14 13
7 6 5 0 8 9 10 9 9 8 6 4 5 6 6 7 6 6 7 6 6 6 7 10 8 8 8 9 9 10 10 11 12 13 14 14 14 14 15 16 16 15 15 15 15 15 15 14 13
5 6 4 4 12 11 9 8 7 7 7 5 5 7 7 6 5 7 8 6 7 7 8 10 8 8 8 9 10 10 9 11 12 12 13 14 14 14 14 15 14 14 14 14 14 14 14 13 13
6 4 3 9 12 10 8 7 5 6 6 6 6 8 9 7 8 9 7 6 7 7 8 10 9 8 8 9 9 9 10 10 11 12 12 13 13 13 13 13 13 13 13 13 14 14 13 13 12
5 2 5 9 11 8 7 6 5 7 8 7 6 8 8 7 8 7 7 6 7 7 8 9 10 8 8 9 9 9 9 9 10 11 11 11 12 12 11 11 12 12 12 12 13 13 13 12 11
3 3 8 9 9 8 7 4 4 6 7 6 4 7 8 8 7 7 7 6 6 6 7 7 7 8 9 8 8 8 9 9 9 10 10 11 11 11 11 10 11 12 12 11 11 11 11 11 10
4 1 7 8 7 9 7 5 5 5 7 6 3 5 8 9 8 8 7 6 6 5 5 6 6 5 5 8 9 8 8 8 9 8 9 9 10 10 10 10 11 11 11 11 11 11 10 9 9
5 0 7 8 6 7 7 6 6 5 8 6 5 7 10 12 9 8 7 6 6 5 4 4 5 4 4 5 7 7 8 7 7 7 8 6 6 7 8 10 11 10 9 10 9 9 9 8 9
3 4 9 7 5 6 6 5 5 6 7 7 8 9 11 11 9 8 7 6 6 5 4 3 4 4 4 4 4 3 4 5 4 4 5 3 4 4 5 11 9 8 9 9 9 8 8 6 6
2 5 6 5 5 5 7 6 4 4 5 6 9 11 11 10 8 7 6 6 5 5 4 4 4 3 2 3 3 2 2 3 4 5 4 3 3 4 3 4 6 6 8 6 9 8 5 4 3
3 4 4 4 5 5 6 6 5 4 7 7 9 11 11 10 8 6 6 5 5 4 4 4 4 3 2 2 2 2 2 2 3 4 4 3 2 3 3 2 3 3 3 3 3 3 4 3 3
3 4 4 4 5 5 6 6 5 6 7 8 10 11 10 9 8 6 5 5 5 4 4 4 4 3 2 2 1 2 2 2 3 2 3 3 3 3 3 2 2 2 3 3 3 3 4 4 3
4 4 5 5 6 6 6 5 4 6 8 9 10 10 9 9 8 7 6 5 5 4 5 5 4 4 3 2 1 1 2 2 2 2 3 3 2 2 2 3 2 2 2 2 3 4 4 3 3
5 5 6 5 5 5 5 5 5 7 9 9 9 9 9 8 8 7 6 5 5 5 5 5 4 4 3 2 1 2 2 2 2 2 2 2 2 3 3 2 3 3 3 4 3 4 3 3 4
5 5 4 6 4 4 5 5 8 8 8 8 8 8 8 8 8 7 6 6 5 5 5 4 3 4 3 2 1 1 1 1 1 2 2 2 2 3 3 3 3 3 3 3 3 3 3 3 3
7 4 3 6 5 4 4 3 8 7 8 7 8 8 8 8 8 7 7 7 6 5 5 5 4 4 3 3 2 1 1 1 0 1 2 2 2 3 3 2 3 4 3 3 3 3 3 3 3
5 3 3 4 5 4 4 3 6 7 7 7 8 8 8 8 8 8 7 6 6 6 5 5 5 4 4 3 3 2 1 2 1 2 2 2 2 3 2 3 4 4 3 3 3 3 2 2 2
4 4 3 2 4 4 4 3 4 7 7 8 8 8 8 8 8 8 7 7 7 6 6 5 5 5 4 3 3 2 2 2 2 2 3 3 2 3 2 2 4 3 3 3 4 4 4 3 3
6 6 5 4 4 4 3 4 4 6 7 7 8 8 8 9 8 8 8 7 7 7 7 6 6 6 5 4 2 2 1 1 1 1 2 3 3 2 3 3 3 3 3 4 4 4 3 3 3
8 7 5 4 5 6 5 6 6 6 7 7 8 8 8 9 9 10 9 9 8 8 8 6 6 6 5 5 4 3 3 2 2 3 2 2 2 2 2 3 2 3 3 4 5 5 5 3 3
8 5 5 6 7 5 6 4 6 7 8 8 8 8 8 9 9 9 10 9 9 8 8 8 7 7 6 6 5 4 3 2 2 1 2 2 3 3 3 3 3 3 2 3 4 4 3 4 3
4 4 6 7 7 7 7 7 4 8 8 9 9 9 8 8 9 9 9 9 9 8 8 8 8 7 7 6 6 5 4 2 2 2 2 2 2 3 3 3 3 3 3 3 3 3 4 3 3
5 6 6 8 8 8 6 8 3 5 6 7 8 8 8 8 9 9 9 9 8 8 8 8 8 8 7 7 6 6 4 3 2 2 2 2 2 3 3 3 3 4 3 3 3 4 5 3 3
9 9 7 8 8 6 4 7 2 1 4 5 6 7 8 8 8 9 10 10 10 9 9 8 8 8 8 8 7 7 6 5 5 4 3 3 2 2 3 3 3 3 3 3 3 4 4 4 4
12 12 7 6 6 5 6 6 1 2 3 5 6 6 7 8 8 9 10 10 10 10 9 9 8 8 8 8 7 6 6 5 4 4 3 3 2 2 2 3 3 3 3 3 3 4 4 3 4
11 11 9 9 7 7 5 4 4 3 4 6 6 6 6 7 7 8 9 9 10 10 10 10 9 8 8 8 8 7 7 5 4 4 4 3 2 2 3 3 3 3 3 3 4 3 3 3 4
9 8 7 8 7 8 6 7 4 5 5 6 6 6 5 6 6 7 8 9 9 9 9 9 9 8 8 8 7 7 7 6 5 5 4 3 3 2 3 3 3 3 3 3 4 3 3 3 3
9 10 9 8 8 9 6 4 1 2 3 4 5 4 5 5 5 6 6 7 9 9 9 9 9 9 8 8 7 6 6 6 6 5 5 4 4 4 4 4 4 3 3 3 3 3 3 4 3
9 9 10 9 8 9 8 3 4 2 2 3 3 3 4 4 5 5 5 6 7 8 9 9 8 8 8 8 7 7 6 6 6 5 4 4 4 4 4 4 4 4 3 3 3 4 3 4 4
Wind_Direction
175 185 211 232 222 85 66 66 66 73 72 61 60 54 59 43 30 65 80 88 84 86 89 94 77 69 68 74 78 81 92 98 102 107 112 120 122 122 123 123 123 122 120 118 117 117 117 116 114
174 190 226 236 45 74 66 62 70 68 81 93 78 69 67 64 53 85 95 95 98 94 92 84 80 74 72 75 79 84 95 97 101 105 112 117 119 119 122 122 121 120 121 120 120 120 119 117 115
183 227 257 267 57 58 68 71 81 85 88 89 81 63 51 61 75 87 95 111 106 98 96 90 87 79 75 76 79 86 97 100 104 106 109 113 117 118 118 120 120 122 123 123 123 120 119 118 115
214 222 228 71 71 63 67 83 96 101 89 79 90 83 73 61 72 91 110 114 106 99 97 96 90 80 75 77 80 84 97 103 107 110 109 111 115 117 120 122 123 124 125 126 125 122 120 119 117
239 250 102 80 74 74 75 83 86 79 81 87 88 90 85 79 88 104 116 111 102 96 95 97 91 83 79 80 83 87 96 103 110 113 114 117 119 120 122 123 125 126 128 128 129 126 125 124 122
238 243 75 77 80 82 85 90 90 82 89 97 99 100 87 98 107 114 113 104 98 97 97 100 104 92 87 84 86 93 102 105 111 114 115 118 120 123 126 125 128 130 131 130 131 130 128 126 124
297 39 69 76 85 88 89 85 77 83 90 87 93 99 109 117 115 120 114 112 101 96 95 98 106 111 111 97 88 92 104 109 113 115 120 122 121 122 125 126 127 131 133 133 134 135 131 129 127
298 335 84 75 75 80 98 94 72 76 85 91 100 104 123 128 130 125 119 113 101 95 90 97 100 98 105 111 105 101 107 112 117 119 124 127 131 133 132 136 129 129 132 134 136 138 136 134 132
258 307 71 66 66 88 115 111 94 90 103 99 79 80 113 132 139 134 128 123 117 113 102 99 100 102 98 99 110 120 124 126 134 134 137 151 149 140 144 125 124 130 133 134 136 139 138 140 141
267 46 61 60 64 91 117 106 113 125 117 114 111 107 124 140 144 139 133 129 128 124 116 104 92 89 97 96 106 118 124 126 136 130 140 145 128 127 131 120 133 137 137 139 140 140 153 176 158
43 53 69 81 91 106 120 117 120 119 104 116 132 136 141 148 148 142 137 132 129 126 121 114 103 92 87 102 104 101 106 116 133 135 141 141 137 139 141 140 148 154 161 159 150 163 170 158 134
84 76 76 87 106 123 116 117 109 82 77 105 128 141 149 156 154 151 144 137 134 131 130 124 118 111 84 72 96 119 117 123 127 139 158 147 141 144 140 141 141 157 152 147 148 142 144 135 140
114 92 93 103 123 121 120 116 101 101 105 117 131 145 154 156 152 149 146 145 143 143 137 124 118 112 106 96 75 93 96 106 122 135 143 159 154 148 145 141 150 151 139 147 151 152 139 133 132
95 108 113 116 123 133 130 121 122 112 129 132 141 151 157 158 157 154 155 160 159 157 147 137 136 125 120 123 124 100 119 127 120 129 140 160 147 149 156 154 146 139 141 135 148 145 137 130 118
147 146 137 130 140 138 149 134 122 124 142 145 150 152 156 160 164 163 161 167 165 160 153 149 148 137 138 147 150 143 138 124 114 121 132 151 156 157 158 146 151 144 143 146 146 139 142 142 137
186 191 162 134 158 169 219 115 118 140 155 153 156 157 162 166 169 168 167 172 169 163 158 161 161 147 150 148 139 124 108 118 128 125 126 141 149 162 166 158 149 145 152 153 147 147 144 139 140
202 208 163 141 164 178 217 112 124 153 166 163 165 166 170 169 175 172 177 175 169 167 163 166 164 161 155 146 146 138 116 114 132 132 124 132 153 167 171 151 139 161 161 162 162 133 148 143 140
202 208 188 170 154 192 208 155 141 166 182 178 175 174 177 178 178 175 180 174 168 166 165 166 167 166 165 162 160 162 154 158 158 139 125 136 155 158 165 154 154 164 153 150 139 137 141 138 144
244 237 219 162 148 209 214 198 173 177 192 190 184 181 182 185 177 174 177 173 168 167 171 176 176 170 180 178 182 178 167 173 155 148 134 144 154 158 168 156 146 164 151 157 158 153 151 156 156
233 233 213 171 162 223 222 217 185 188 202 198 192 187 186 183 179 179 181 180 177 175 180 181 183 180 188 172 176 179 172 171 149 141 136 155 160 175 171 166 165 160 156 163 168 174 176 170 183
228 234 226 202 183 205 227 212 194 190 199 198 201 199 193 188 183 181 184 185 183 182 184 184 184 182 188 179 176 170 171 187 166 164 162 173 178 180 174 167 170 175 188 175 184 193 199 190 194
221 217 224 212 222 212 234 248 182 186 190 196 196 194 194 189 185 183 183 185 188 187 183 184 184 185 184 187 188 188 184 178 165 168 149 177 184 185 183 180 180 200 199 177 201 193 207 214 204
229 193 214 223 235 245 231 258 178 181 199 198 195 192 191 188 185 185 186 185 189 187 185 183 185 187 187 191 188 198 198 186 172 164 154 207 185 193 197 191 189 198 202 196 208 195 217 220 227
179 185 201 224 239 242 240 256 230 184 201 194 192 188 188 185 184 184 185 184 187 187 187 185 182 188 189 193 195 203 198 192 184 194 192 205 190 193 195 203 196 206 206 200 208 211 213 232 244
203 209 211 216 222 232 209 247 252 134 186 193 188 184 184 186 185 184 183 185 188 187 185 185 183 188 191 195 198 199 196 197 196 205 202 217 203 196 183 198 204 209 204 207 216 219 229 224 228
212 226 238 246 236 215 188 236 171 121 162 181 187 182 179 182 186 187 186 187 189 189 187 186 185 189 189 192 197 199 197 206 198 201 214 210 220 206 174 195 206 211 206 209 212 228 221 216 227
214 228 245 256 261 257 210 206 185 173 177 180 181 179 179 181 183 186 185 187 189 191 190 191 187 191 192 192 191 194 197 206 201 197 208 210 213 203 183 191 198 211 213 217 220 223 223 220 230
242 228 227 240 247 247 231 231 230 179 188 178 180 180 179 182 184 185 186 186 191 192 191 192 191 193 195 195 196 190 192 195 199 205 197 206 209 206 193 197 196 201 206 211 224 218 211 223 228
205 218 235 240 248 254 246 225 115 187 180 185 178 176 182 184 183 185 188 187 190 189 187 192 191 192 194 197 197 196 191 191 193 197 201 204 207 198 193 194 197 198 204 212 220 231 210 222 225
228 230 229 234 235 248 262 231 108 141 163 185 177 168 170 179 178 178 182 183 188 188 185 186 191 194 194 193 194 196 194 191 194 195 198 202 201 203 196 194 194 199 196 203 215 224 218 222 227